Starlink 1237

operational
NORAD ID: 45192 Int'l Des: 2020-012 Owner: SPXS Country: US Constellation: starlink
LEOCIRCULAR

About Starlink 1237

Description loading...

Live Position

Loading 3D Globe...

Upcoming Passes

Altitude History

Altitude vs Time

uPlot chart will show altitude changes over time

Two-Line Element Set

1 45192U 20012Q 25259.13840372 .02993560 12014-4 83072-3 0 9996
2 45192 53.0389 54.1592 0007213 293.2080 66.8201 16.27095912309315
Epoch: Sep 16, 2025 • Age: 6 hours

Current Status

Altitude 195.7 km
Velocity 7.79 km/s
Sub-Earth Point 11.08°N, 73.41°W
Launch Date Feb 17, 2020
Age 5.5 years
Type internet

Technical Details

Classification Payload
Mass 260.00 kg
Dry Mass 248.00 kg
Total Mass 260.00 kg
Length 0.20 m
Diameter 2.80 m
Span 9.00 m
Shape Box + pan
Manufacturer SPXS
Bus Type Starlink
Phase Status In Orbit
Owner/State SPXS/US

Large Constellations

Loading constellations...